Snowfall_Accumulation
0.0 0.0 0.0 0.0 0.0 0.0 0.0 0.0 25.1 0.0 0.0 10.5 10.1 9.5 0.0 0.0 0.0 0.0 0.0 0.0 0.0 0.0 0.0 0.0 0.0 0.0 0.1 0.0 0.0 0.0 0.2 0.5 1.0 0.0 0.0 0.0 0.3 4.0 8.1 13.2 12.5 8.0 6.3 0.4
0.0 0.0 0.0 0.0 0.0 0.0 0.0 8.5 15.8 0.0 0.0 53.4 36.0 0.1 0.2 0.0 0.0 0.0 0.1 0.1 0.0 0.0 0.0 0.6 0.1 0.0 0.0 0.0 0.0 0.3 0.3 4.8 3.5 0.1 0.0 0.0 1.8 2.2 3.4 10.4 11.6 6.7 10.3 1.8
0.0 0.0 0.0 0.0 0.0 0.0 0.0 9.4 57.8 16.5 1.7 8.6 5.2 5.1 3.5 2.4 0.0 0.0 0.0 0.1 0.0 0.4 0.7 0.1 0.2 0.4 0.0 0.0 0.1 0.0 0.1 4.7 3.7 3.2 1.4 1.2 1.3 1.0 0.6 5.9 9.6 3.1 2.8 0.4
0.0 0.0 0.0 0.0 0.0 0.0 0.0 32.4 46.2 0.1 28.7 25.7 6.4 4.0 2.1 2.7 3.7 0.1 0.1 0.6 1.2 1.9 7.0 3.1 2.3 0.6 0.4 0.1 0.0 0.0 0.9 5.3 0.8 0.0 0.0 0.3 0.1 0.0 0.6 2.7 3.4 6.5 0.4 0.4
0.0 0.0 0.0 0.0 0.0 0.0 2.3 46.8 19.7 2.8 1.0 1.2 4.6 6.2 6.9 4.0 3.7 4.8 3.3 2.9 2.1 2.1 9.4 3.7 6.9 2.9 0.4 1.0 0.6 1.3 0.9 10.2 3.2 1.5 0.2 0.2 0.9 0.6 0.6 0.3 0.2 0.8 0.9 1.1
0.0 0.0 0.0 0.0 0.0 0.0 2.9 2.6 0.0 4.0 4.8 5.1 5.5 5.4 2.4 2.2 4.2 1.3 1.3 4.7 8.4 5.2 4.5 0.2 0.0 0.0 0.0 0.4 1.5 3.6 5.3 7.9 7.6 6.7 0.5 0.7 4.9 0.7 0.0 1.5 2.0 1.7 0.9 1.3
0.0 0.0 0.0 0.0 0.0 0.0 0.0 0.0 0.0 19.4 19.7 6.1 2.2 1.4 1.7 3.3 2.2 4.6 1.4 0.9 3.8 0.0 0.0 0.0 0.0 0.0 0.0 0.0 0.3 0.2 2.3 7.1 10.0 10.7 3.2 11.1 0.5 0.0 0.0 1.7 0.9 0.0 0.2 0.0
0.0 0.0 0.0 0.0 0.0 0.0 0.0 0.0 0.0 16.9 24.1 3.7 3.8 3.4 3.5 1.7 3.3 3.5 2.0 0.3 0.0 0.0 0.0 9.6 11.8 9.1 8.1 6.9 0.4 0.0 0.0 5.7 13.3 11.4 6.0 1.0 0.4 0.2 0.5 1.0 1.0 0.6 0.7 0.1
0.0 0.0 0.0 0.0 0.0 0.0 0.0 0.0 0.0 7.7 24.9 9.3 2.1 4.5 1.0 5.6 6.2 6.6 6.3 0.0 0.0 0.0 8.4 16.2 12.6 11.1 6.7 4.0 3.5 0.2 0.6 2.2 11.8 11.7 12.5 5.6 1.6 0.7 0.0 0.0 6.1 2.3 1.2 0.3
0.0 0.0 0.0 0.0 0.0 0.0 0.0 0.0 0.0 0.0 23.8 1.3 1.8 9.3 4.5 2.3 3.8 8.4 7.1 4.3 3.4 0.0 11.7 14.2 10.8 5.8 1.0 2.6 5.3 8.8 7.8 13.5 17.6 12.5 15.8 4.1 1.5 0.0 0.0 2.8 8.2 1.7 1.3 3.0
0.0 0.0 0.0 0.0 0.0 0.0 0.0 0.0 0.0 0.0 14.2 6.3 2.3 0.0 4.5 4.7 2.3 7.9 10.7 9.5 11.3 12.2 14.0 10.9 8.5 5.5 2.6 2.8 1.4 8.9 11.9 16.2 11.1 13.3 14.8 10.2 1.3 0.4 4.6 3.1 1.6 2.3 2.8 3.6
0.0 0.0 0.0 0.0 0.0 0.0 0.0 0.0 0.0 0.0 8.1 7.2 0.0 0.0 0.0 0.0 0.0 4.2 6.3 7.0 6.4 7.4 14.4 13.4 6.9 6.8 4.1 3.1 4.5 6.1 13.4 11.2 11.7 8.9 7.0 3.9 2.4 2.7 3.3 3.2 3.1 3.4 3.8 2.3
0.0 0.0 0.0 0.0 0.0 0.0 0.0 0.0 0.0 0.0 18.4 14.2 0.0 1.8 0.0 0.0 0.0 0.0 9.5 6.0 0.0 2.4 0.0 11.7 8.3 6.0 3.1 4.6 4.0 5.9 8.1 7.5 14.7 7.7 4.7 2.0 3.6 2.0 2.2 3.1 3.2 1.6 0.0 0.0
0.0 0.0 0.0 0.0 0.0 0.0 0.0 0.0 0.0 0.0 12.9 24.6 4.8 0.0 0.0 0.0 0.0 0.0 0.0 0.0 0.0 0.1 4.2 17.1 11.2 6.7 0.9 1.1 0.9 2.6 8.5 7.4 9.1 12.2 11.7 1.7 3.1 3.4 3.6 2.8 1.4 1.5 0.0 0.0
0.0 0.0 0.0 0.0 0.0 0.0 0.0 0.0 0.0 0.0 1.1 13.2 7.1 0.0 0.0 0.0 0.0 0.0 0.0 0.0 0.3 3.8 15.7 16.0 9.4 1.4 3.2 0.4 1.3 3.9 0.5 2.9 7.0 10.7 7.1 9.1 6.4 8.5 4.7 2.5 0.6 0.0 0.0 0.0
0.0 0.0 0.0 0.0 0.0 0.0 0.0 17.3 0.0 0.0 0.0 16.4 9.9 0.0 0.0 0.0 0.0 0.0 0.0 0.0 0.3 5.8 15.2 10.0 3.1 0.0 4.6 8.6 2.4 0.0 0.0 1.2 3.0 2.7 2.9 4.6 5.1 0.0 0.0 0.9 1.6 1.2 0.0 0.3
0.0 0.0 0.0 0.0 0.0 0.0 2.6 14.6 0.0 0.0 0.0 26.3 18.4 5.6 4.8 0.1 0.0 0.0 0.0 0.0 1.1 2.3 10.9 6.1 1.2 0.5 5.9 6.7 1.8 0.5 0.0 0.1 0.1 0.0 1.3 0.7 0.0 1.2 0.0 0.0 0.0 0.6 0.0 0.0
0.0 0.0 0.0 0.0 0.0 0.0 5.0 0.0 0.0 0.0 1.1 4.8 19.6 7.7 10.6 0.0 4.7 6.2 1.6 3.2 2.8 4.7 4.0 4.5 2.5 2.3 3.8 6.8 0.2 0.0 0.0 0.0 0.2 0.3 0.0 0.1 0.0 0.2 0.0 0.0 0.0 0.4 0.1 0.0
0.0 0.0 0.0 0.0 0.0 20.1 0.0 0.0 0.0 0.0 1.2 14.6 10.0 9.5 14.4 2.1 3.7 3.3 5.9 2.6 10.7 1.8 5.9 1.7 3.2 4.4 6.7 1.3 0.1 0.0 0.0 1.2 0.8 0.5 0.0 0.0 0.5 0.3 0.3 0.3 0.5 0.9 0.3 0.0
0.0 0.0 35.9 58.2 7.8 0.0 0.0 0.0 20.3 16.4 9.4 4.8 7.7 2.9 12.4 3.9 10.9 10.6 10.4 5.8 8.4 9.0 2.0 0.5 5.8 3.6 0.9 0.5 0.2 0.1 0.7 0.6 0.4 2.8 1.1 0.2 0.6 0.4 0.4 0.6 1.0 1.6 0.9 0.6
0.0 30.7 17.3 0.0 0.0 0.0 8.7 26.4 26.2 13.5 13.1 4.3 1.4 0.6 6.2 1.2 15.9 12.6 3.0 19.1 8.3 9.4 3.0 4.6 6.4 5.9 3.0 0.2 1.4 0.0 0.0 0.0 0.2 0.4 0.4 0.7 2.8 3.3 2.0 0.8 0.8 1.3 0.8 0.9
0.0 0.0 0.0 0.0 4.2 14.3 17.2 13.4 13.3 5.8 2.4 1.6 1.2 3.1 4.3 4.9 5.2 19.3 13.2 10.3 14.8 7.5 1.7 12.7 9.1 7.2 0.8 0.2 0.6 0.1 0.0 0.2 0.6 1.1 2.7 2.2 2.6 2.6 2.1 1.9 1.7 1.4 0.9 2.1
0.0 5.6 12.9 18.1 21.7 21.8 14.2 8.5 4.7 4.6 3.9 2.9 6.5 12.6 12.8 11.1 14.4 21.3 13.8 14.1 8.5 1.7 9.6 7.3 8.9 2.1 0.2 0.1 0.3 0.1 0.0 0.6 2.0 2.0 1.4 2.0 1.1 0.5 1.3 1.2 1.4 2.0 3.2 5.2
11.9 24.3 25.7 20.2 15.6 9.6 5.7 2.8 3.8 5.2 4.3 2.2 4.8 16.4 18.2 11.4 17.5 12.9 17.2 12.5 8.1 12.2 9.1 11.0 4.4 1.4 0.9 0.4 0.2 0.0 0.2 0.5 1.1 1.4 0.8 0.8 1.0 1.2 1.8 2.8 4.1 3.6 5.3 7.7
16.0 11.9 11.7 9.9 7.8 5.9 5.6 2.6 0.5 0.8 0.3 1.2 6.7 10.6 14.7 18.3 20.3 13.7 11.1 16.8 13.4 12.0 14.1 10.8 5.1 1.8 1.5 1.3 1.6 1.5 1.0 2.3 3.4 6.0 6.3 5.3 5.0 4.5 5.8 6.3 6.1 5.1 5.6 6.0
9.3 6.9 7.7 6.2 5.0 6.4 5.2 4.0 4.2 1.9 1.9 1.2 3.5 17.3 16.3 20.7 15.4 18.4 12.1 12.6 12.7 14.0 7.9 5.4 3.3 3.1 3.3 3.3 4.2 4.8 5.7 7.6 9.8 10.1 9.8 9.4 8.4 7.2 8.0 8.7 7.8 7.8 6.7 7.3
6.2 8.2 7.3 5.7 5.5 8.0 6.8 6.0 5.9 2.1 5.3 9.6 10.3 13.2 12.4 9.7 9.7 7.9 6.7 9.8 9.2 5.4 4.7 4.9 4.4 4.5 4.8 5.1 5.7 6.4 6.5 6.2 6.9 7.8 7.8 9.4 8.2 7.1 5.8 6.7 8.0 7.0 7.0 6.8